Waarnemingen

Advertentie
Mijn weer
Greifswalder Oie, Duitsland (10097): temperatuur & dauwpunt: 20.03.2017 00:00:00 - 26.03.2017 00:00:00 (CET)Greifswalder Oie, Duitsland (10097): temperatuur 5cm & temperatuur -5cm: 20.03.2017 00:00:00 - 26.03.2017 00:00:00 (CET)Greifswalder Oie, Duitsland (10097): temperatuur -20cm & temperatuur -100cm: 20.03.2017 00:00:00 - 26.03.2017 00:00:00 (CET)Greifswalder Oie, Duitsland (10097): windsnelheid & windstoten: 20.03.2017 00:00:00 - 26.03.2017 00:00:00 (CET)Greifswalder Oie, Duitsland (10097): windrichting: 20.03.2017 00:00:00 - 26.03.2017 00:00:00 (CET)Greifswalder Oie, Duitsland (10097): luchtdruk: 20.03.2017 00:00:00 - 26.03.2017 00:00:00 (CET)Greifswalder Oie, Duitsland (10097): zicht: 20.03.2017 00:00:00 - 26.03.2017 00:00:00 (CET)Greifswalder Oie, Duitsland (10097): neerslag: 20.03.2017 00:00:00 - 26.03.2017 00:00:00 (CET)
Datum & Tijd tt [°C] td [°C] tt 5cm [°C] tt -5cm [°C] tt -20cm [°C] tt -100cm [°C] ff [km/u] ff [kn] fx [km/u] fx [kn] dd ppp [hPa] vv [km] rr [mm]
26.03.2017 00:00:00 4,6 2,7 2,9 3,1 5,9 6,1 20 11 24 13 NW 1025,1 25 0,0
25.03.2017 23:00:00 4,3 2,5 2,1 3,6 6,2 6,1 19 11 26 14 NW 1025,1 24 0,0
25.03.2017 22:00:00 4,7 2,7 3,7 4,2 6,5 6,1 18 10 23 13 NW 1024,9 25 0,0
25.03.2017 21:00:00 5,3 3,2 4,3 4,6 6,8 6,1 17 9 20 11 WNW 1024,6 23 0,0
25.03.2017 20:00:00 4,7 3,3 3,8 5,2 7,0 6,1 20 11 28 15 NW 1024,4 23 0,0
25.03.2017 19:00:00 5,4 3,6 4,5 6,1 7,3 6,1 26 14 29 15 NW 1024,8 24 0,0
25.03.2017 18:00:00 6,3 3,8 5,9 7,1 7,4 6,1 24 13 32 18 WNW 1024,6 25 0,0
25.03.2017 17:00:00 7,0 3,7 6,7 8,5 7,4 6,1 28 15 34 19 WNW 1024,7 24 0,0
25.03.2017 16:00:00 8,4 4,5 8,2 9,9 7,1 6,1 31 17 40 22 WNW 1025,7 22 0,0
25.03.2017 15:00:00 8,6 4,3 8,7 10,7 6,7 6,1 30 16 41 22 NW 1025,7 16 0,0
25.03.2017 14:00:00 8,2 4,3 8,4 9,5 6,3 6,1 31 17 42 23 WNW 1026,2 16 0,0
25.03.2017 13:00:00 6,5 3,5 7,6 8,4 6,0 6,0 35 19 42 23 WNW 1026,8 17 0,0
25.03.2017 12:00:00 6,5 3,8 6,8 6,9 5,8 6,0 30 16 35 19 WNW 1027,3 17 0,0
25.03.2017 11:00:00 5,8 3,6 6,0 6,2 5,6 6,0 29 16 47 26 WNW 1027,8 20 0,0
25.03.2017 10:00:00 5,4 3,5 5,7 5,5 5,5 6,0 38 20 50 27 NW 1028,1 27 0,0
25.03.2017 09:00:00 4,9 3,0 5,2 5,2 5,5 6,0 33 18 46 25 W 1028,0 35 0,0
25.03.2017 08:00:00 4,6 2,2 4,7 4,3 5,5 6,0 34 18 40 22 W 1027,9 23 0,0
25.03.2017 07:00:00 4,7 2,2 4,3 3,9 5,7 6,0 35 19 42 23 WNW 1028,3 37 0,0
25.03.2017 06:00:00 4,6 1,9 4,1 3,9 5,8 6,0 37 20 44 24 WNW 1028,5 46 0,0
25.03.2017 05:00:00 5,0 2,2 4,5 4,1 5,9 6,0 30 16 37 20 WNW 1028,7 39 0,0
25.03.2017 04:00:00 5,2 2,3 4,7 4,4 6,1 6,0 26 14 33 18 W 1029,3 32 0,0
25.03.2017 03:00:00 5,3 2,4 5,0 4,5 6,2 6,0 27 15 32 17 W 1029,9 30 0,0
25.03.2017 02:00:00 5,4 1,6 5,1 4,5 6,4 6,0 24 13 32 17 W 1030,4 32 0,0
25.03.2017 01:00:00 5,3 1,5 5,0 4,4 6,7 6,0 23 12 27 15 W 1030,6 - 0,0
25.03.2017 00:00:00 5,3 1,9 4,4 4,4 7,0 6,0 23 12 30 16 W 1030,9 - 0,0
24.03.2017 23:00:00 5,6 2,0 4,9 4,8 7,3 6,0 25 14 30 16 W 1031,2 - 0,0
24.03.2017 22:00:00 5,6 3,1 4,8 5,2 7,7 6,0 19 10 22 12 WZW 1031,5 - 0,0
24.03.2017 21:00:00 5,6 3,0 4,5 5,6 8,2 6,0 14 7 18 10 W 1031,5 22 0,0
24.03.2017 20:00:00 5,4 2,7 4,0 6,2 8,7 6,0 9 5 19 11 W 1031,6 - 0,0
24.03.2017 19:00:00 5,8 0,2 4,6 7,5 9,2 6,0 13 7 19 11 W 1031,6 - 0,0
24.03.2017 18:00:00 5,6 0,4 4,6 9,9 9,5 6,0 16 9 23 12 NW 1031,7 - 0,0
24.03.2017 17:00:00 7,6 -0,1 6,8 13,7 9,3 6,0 8 5 12 6 NNW 1032,1 54 0,0
24.03.2017 16:00:00 6,8 1,9 8,2 15,3 8,9 6,0 6 3 9 5 N 1032,1 29 0,0
24.03.2017 15:00:00 6,2 1,0 8,1 15,7 8,2 6,0 4 2 7 4 NNW 1031,9 20 0,0
24.03.2017 14:00:00 6,7 1,8 8,2 15,4 7,4 6,0 5 3 14 8 NNW 1031,9 15 0,0
24.03.2017 13:00:00 6,7 2,6 8,1 14,3 6,5 6,0 9 5 17 9 N 1031,9 9 0,0
24.03.2017 12:00:00 6,6 2,2 8,0 12,4 5,7 6,0 10 5 23 12 N 1031,7 22 0,0
24.03.2017 11:00:00 7,9 2,7 9,6 9,7 5,0 6,0 13 7 19 10 NNW 1031,6 45 0,0
24.03.2017 10:00:00 5,1 0,3 7,1 7,8 4,4 6,0 6 4 15 8 WNW 1031,3 19 0,0
24.03.2017 09:00:00 6,6 2,2 8,5 5,0 4,1 6,0 14 7 22 12 NW 1030,7 39 0,0
24.03.2017 08:00:00 5,3 1,9 6,1 2,8 4,1 6,0 19 10 28 15 NNW 1030,1 39 0,0
24.03.2017 07:00:00 4,5 1,2 3,4 1,9 4,2 6,0 22 12 30 16 N 1029,1 49 0,0
24.03.2017 06:00:00 3,8 2,2 2,3 1,8 4,4 6,0 19 11 27 15 N 1028,3 29 0,0
24.03.2017 05:00:00 4,1 2,7 2,9 2,0 4,6 6,0 22 12 29 15 N 1027,5 17 0,0
24.03.2017 04:00:00 4,3 2,9 3,0 2,1 4,8 6,0 21 12 27 15 N 1026,9 14 0,0
24.03.2017 03:00:00 4,0 2,4 2,6 2,2 5,0 6,0 17 9 21 11 N 1026,5 31 0,0
24.03.2017 02:00:00 4,3 2,3 2,8 2,5 5,2 6,0 18 10 23 12 N 1026,4 27 0,0
24.03.2017 01:00:00 3,9 2,4 2,4 2,8 5,5 6,0 14 8 25 14 N 1026,0 22 0,0
24.03.2017 00:00:00 3,8 2,6 2,3 3,4 5,7 6,0 14 8 26 14 N 1025,8 17 0,0
23.03.2017 23:00:00 4,2 3,2 3,2 4,2 5,9 6,0 15 8 21 11 N 1025,3 10 0,0
23.03.2017 22:00:00 4,5 3,1 3,9 4,5 6,0 6,0 14 8 23 12 N 1025,1 15 0,0
23.03.2017 21:00:00 5,1 2,5 4,7 4,8 6,2 6,0 14 8 24 13 NO 1024,3 22 0,0
23.03.2017 20:00:00 5,3 2,1 4,7 5,0 6,4 6,0 14 7 22 12 ONO 1024,1 22 0,0
23.03.2017 19:00:00 5,2 2,7 4,8 5,5 6,5 6,0 13 7 28 15 ONO 1023,5 18 0,0
23.03.2017 18:00:00 5,5 2,2 5,3 6,1 6,7 5,9 16 9 29 16 ONO 1022,9 23 0,0
23.03.2017 17:00:00 5,8 2,1 5,8 6,8 6,7 5,9 14 8 29 16 ONO 1022,5 27 0,0
23.03.2017 16:00:00 5,9 2,1 6,0 7,5 6,7 5,9 17 9 26 14 NO 1022,3 - 0,0
23.03.2017 15:00:00 6,1 2,1 6,5 8,2 6,5 5,9 14 8 29 15 ONO 1022,6 - 0,0
23.03.2017 14:00:00 6,0 2,1 6,7 9,1 6,2 5,9 16 9 28 15 ONO 1022,6 23 0,0
23.03.2017 13:00:00 6,6 2,7 8,2 8,9 5,8 5,9 14 7 25 13 ONO 1022,9 - 0,0
23.03.2017 12:00:00 6,1 2,4 7,0 7,8 5,4 5,9 17 9 24 13 ONO 1023,0 12 0,0
23.03.2017 11:00:00 6,1 2,1 7,1 7,1 5,1 5,9 17 9 25 13 O 1023,1 24 0,0
23.03.2017 10:00:00 6,0 1,9 6,8 6,0 4,9 5,9 16 9 24 13 O 1023,3 - 0,0
23.03.2017 09:00:00 5,3 2,0 5,5 4,5 4,7 5,9 16 9 22 12 O 1023,2 - 0,0
23.03.2017 08:00:00 5,2 1,8 4,8 3,6 4,7 5,9 16 8 23 12 O 1022,9 - 0,0
23.03.2017 07:00:00 5,2 1,9 4,5 2,8 4,8 5,9 16 8 22 12 O 1022,4 29 0,0
23.03.2017 06:00:00 4,6 2,3 3,1 2,3 5,0 5,9 14 8 19 11 O 1021,9 19 0,0
23.03.2017 05:00:00 4,4 2,3 2,8 2,3 5,2 5,9 13 7 19 10 O 1021,7 21 0,0
23.03.2017 04:00:00 4,8 2,2 2,8 2,5 5,4 5,9 11 6 16 9 O 1021,6 20 0,0
23.03.2017 03:00:00 4,7 2,4 2,2 2,6 5,7 5,8 9 5 19 10 O 1021,7 18 0,0
23.03.2017 02:00:00 5,0 2,5 3,2 2,8 6,0 5,8 11 6 16 9 OZO 1021,6 22 0,0
23.03.2017 01:00:00 5,1 2,3 2,1 2,9 6,4 5,8 10 6 14 8 OZO 1021,6 33 0,0
23.03.2017 00:00:00 5,0 2,4 1,0 3,4 6,8 5,8 8 4 15 8 OZO 1021,5 27 0,0
22.03.2017 23:00:00 5,9 1,7 3,5 3,9 7,2 5,8 10 6 16 8 ZO 1021,3 42 0,0
22.03.2017 22:00:00 6,0 1,5 2,7 4,7 7,6 5,8 8 4 12 6 ZZO 1020,9 47 0,0
22.03.2017 21:00:00 5,5 2,0 2,1 5,5 8,1 5,8 9 5 12 7 OZO 1020,5 50 0,0
22.03.2017 20:00:00 6,5 1,8 3,8 6,5 8,5 5,8 9 5 13 7 O 1020,2 46 0,0
22.03.2017 19:00:00 7,0 0,8 4,5 7,8 8,9 5,8 9 5 11 6 O 1019,7 47 0,0
22.03.2017 18:00:00 7,3 1,6 5,7 9,9 9,1 5,8 9 5 13 7 O 1019,2 46 0,0
22.03.2017 17:00:00 10,2 -0,8 9,2 12,9 8,9 5,8 8 4 10 6 WZW 1018,5 40 0,0
22.03.2017 16:00:00 10,6 0,3 11,1 14,0 8,5 5,8 11 6 19 10 WZW 1018,3 50 0,0
22.03.2017 15:00:00 9,9 2,5 10,7 14,2 7,9 5,8 15 8 21 11 WZW 1018,2 12 0,0
22.03.2017 14:00:00 9,1 3,0 10,2 13,7 7,3 5,8 18 10 27 15 WZW 1018,2 8 0,0
22.03.2017 13:00:00 8,8 2,2 9,7 12,8 6,5 5,8 21 12 27 15 WZW 1018,0 10 0,0
22.03.2017 12:00:00 8,2 2,9 9,7 11,3 5,8 5,8 16 9 29 15 WZW 1017,7 19 0,0
22.03.2017 11:00:00 7,3 2,4 8,7 9,4 5,2 5,8 21 11 24 13 WZW 1017,2 4,6 0,0
22.03.2017 10:00:00 6,2 2,3 8,6 6,8 4,8 5,7 16 8 27 15 ZZW 1016,9 20 0,0
22.03.2017 09:00:00 5,7 1,0 6,7 4,5 4,6 5,7 21 11 30 16 WZW 1015,9 17 0,0
22.03.2017 08:00:00 4,6 0,5 5,0 2,8 4,6 5,7 26 14 33 18 WZW 1015,1 19 0,0
22.03.2017 07:00:00 4,2 0,6 3,8 2,2 4,8 5,7 29 16 37 20 WZW 1014,9 28 0,0
22.03.2017 06:00:00 3,8 0,6 2,7 2,3 5,0 5,7 28 15 39 21 ZW 1014,4 40 0,0
22.03.2017 05:00:00 4,1 0,9 3,2 2,4 5,2 5,7 32 17 39 21 WZW 1013,8 36 0,0
22.03.2017 04:00:00 3,8 0,6 2,7 2,6 5,5 5,7 29 16 43 23 ZW 1013,4 34 0,0
22.03.2017 03:00:00 4,4 1,0 3,4 2,9 5,7 5,7 32 18 42 23 WZW 1013,0 30 0,0
22.03.2017 02:00:00 4,7 1,0 3,7 3,1 6,0 5,6 34 19 41 22 WZW 1012,6 32 0,0
22.03.2017 01:00:00 4,8 1,0 3,8 3,4 6,2 5,6 33 18 42 23 WZW 1012,1 29 0,0
22.03.2017 00:00:00 5,1 1,2 4,1 3,9 6,5 5,6 34 18 46 25 W 1011,4 31 0,0
21.03.2017 23:00:00 5,4 1,2 4,8 4,3 6,8 5,6 35 19 43 23 W 1010,7 30 0,0
21.03.2017 22:00:00 5,7 1,3 5,0 4,6 7,2 5,6 31 17 44 24 W 1009,9 37 0,0
21.03.2017 21:00:00 6,1 1,4 5,4 5,2 7,5 5,6 31 17 44 24 W 1009,2 40 0,0
21.03.2017 20:00:00 6,3 2,1 5,5 5,8 7,9 5,6 28 15 44 24 W 1008,5 41 0,0
21.03.2017 19:00:00 6,0 3,5 5,4 6,6 8,2 5,6 23 13 30 16 WZW 1007,3 59 0,0
21.03.2017 18:00:00 6,1 3,2 5,7 7,2 8,6 5,6 29 15 48 26 W 1006,3 68 0,7
21.03.2017 17:00:00 6,4 3,9 5,3 8,4 8,8 5,6 36 19 46 25 W 1005,8 8 0,1
21.03.2017 16:00:00 7,1 3,7 6,0 10,1 8,8 5,5 51 28 73 40 WNW 1004,4 12 0,2
21.03.2017 15:00:00 9,7 3,9 10,2 13,0 8,5 5,5 26 14 32 17 ZW 1004,0 6 0,0
21.03.2017 14:00:00 9,0 3,2 10,0 12,7 8,1 5,5 24 13 29 15 WZW 1004,4 9 0,0
21.03.2017 13:00:00 8,5 3,6 9,7 13,1 7,5 5,5 23 12 31 17 WZW 1004,5 4,3 0,0
21.03.2017 12:00:00 8,5 3,6 9,8 11,9 7,0 5,5 27 14 33 18 WZW 1004,4 9 0,0
21.03.2017 11:00:00 7,7 4,1 9,0 10,2 6,5 5,5 29 15 34 19 WZW 1004,0 3,3 0,0
21.03.2017 10:00:00 7,1 4,5 8,5 8,4 6,2 5,5 28 15 36 20 WZW 1003,6 5 0,0
21.03.2017 09:00:00 6,8 5,0 7,8 6,7 6,1 5,5 29 16 36 19 WZW 1003,1 8 0,0
21.03.2017 08:00:00 6,4 4,8 6,9 5,5 6,2 5,5 30 16 36 19 WZW 1002,4 13 0,0
21.03.2017 07:00:00 6,2 5,2 5,9 5,1 6,4 5,5 28 15 32 17 WZW 1001,9 17 0,0
21.03.2017 06:00:00 5,9 4,9 5,0 5,4 6,5 5,5 26 14 34 18 WZW 1001,3 33 0,0
21.03.2017 05:00:00 6,4 5,1 5,9 6,1 6,7 5,4 29 15 39 21 W 1000,7 44 0,0
21.03.2017 04:00:00 6,7 5,1 5,9 6,4 6,8 5,4 29 15 34 18 W 1000,4 56 0,1
21.03.2017 03:00:00 6,2 4,9 6,0 6,8 6,9 5,4 21 11 55 30 W 999,7 47 0,0
21.03.2017 02:00:00 7,9 6,3 7,0 7,3 6,9 5,4 40 22 56 30 W 999,0 13 0,1
21.03.2017 01:00:00 8,9 6,5 8,5 7,5 6,9 5,4 51 28 64 35 WZW 998,0 15 0,0
21.03.2017 00:00:00 8,9 7,9 8,5 7,6 6,9 5,4 41 22 50 27 ZW 997,7 9 0,1
20.03.2017 23:00:00 8,9 8,5 8,4 7,5 6,9 5,4 36 19 50 27 ZW 998,5 6 1,2
20.03.2017 22:00:00 8,3 8,2 8,1 7,5 6,9 5,4 35 19 44 24 ZW 999,2 3,6 1,7
20.03.2017 21:00:00 8,1 7,8 7,8 7,5 6,9 5,4 31 17 39 21 ZZW 999,7 4,7 0,0
20.03.2017 20:00:00 8,1 7,8 7,7 7,5 7,0 5,4 29 15 36 19 ZZW 1000,4 5 0,1
20.03.2017 19:00:00 8,0 7,9 7,7 7,5 7,1 5,4 29 16 37 20 ZW 1000,9 7 0,1
20.03.2017 18:00:00 6,7 6,7 6,8 7,7 7,2 5,4 16 8 27 14 Z 1001,5 0,5 0,6
20.03.2017 17:00:00 6,2 6,2 6,3 8,3 7,2 5,4 14 7 22 12 ZZO 1002,1 0,4 0,4
20.03.2017 16:00:00 5,4 5,1 5,8 9,0 7,1 5,4 11 6 19 11 ZO 1002,9 4,7 0,4
20.03.2017 15:00:00 5,7 5,2 6,5 9,8 6,9 5,4 13 7 18 10 ZO 1003,4 13 0,0
20.03.2017 14:00:00 6,2 5,0 7,0 11,5 6,4 5,4 8 4 14 7 OZO 1003,8 12 0,0
20.03.2017 13:00:00 8,2 5,3 10,3 10,6 5,9 5,4 3 2 8 5 WNW 1004,0 27 0,0
20.03.2017 12:00:00 6,7 4,9 8,2 9,4 5,5 5,4 5 3 16 9 WNW 1004,3 28 0,0
20.03.2017 11:00:00 5,7 4,9 7,7 7,9 5,1 5,4 13 7 21 12 W 1004,3 24 0,0
20.03.2017 10:00:00 5,3 4,6 5,9 6,3 5,0 5,4 17 9 29 15 W 1004,0 18 0,0
20.03.2017 09:00:00 5,4 4,8 5,6 5,7 4,9 5,4 20 11 43 23 WNW 1003,7 26 0,0
20.03.2017 08:00:00 5,6 4,6 5,4 5,2 4,8 5,4 37 20 50 27 W 1003,4 45 0,0
20.03.2017 07:00:00 5,4 4,5 5,1 5,0 4,8 5,4 34 18 41 22 W 1002,7 70 0,0
20.03.2017 06:00:00 5,6 5,3 5,2 5,0 4,7 5,4 37 20 42 23 W 1002,2 12 0,1
20.03.2017 05:00:00 5,5 5,5 5,4 5,1 4,6 5,4 33 18 45 25 W 1001,3 3,5 0,1
20.03.2017 04:00:00 5,5 5,4 5,4 5,1 4,5 5,4 35 19 49 27 W 1000,2 2,5 0,1
20.03.2017 03:00:00 6,1 5,9 5,9 5,0 4,4 5,4 41 22 48 26 W 999,5 3,8 0,1
20.03.2017 02:00:00 5,7 5,6 5,6 4,6 4,3 5,5 32 17 38 21 W 998,9 7 0,2
20.03.2017 01:00:00 5,5 5,4 5,3 4,2 4,3 5,5 32 18 37 20 WZW 998,6 1,8 0,2
20.03.2017 00:00:00 4,6 4,5 4,4 3,6 4,3 5,5 18 10 24 13 ZW 998,5 7 0,5

tt = temperatuur
td = dauwpunt
tt 5cm = temperatuur 5cm
tt -5cm = temperatuur -5cm
tt -20cm = temperatuur -20cm
tt -100cm = temperatuur -100cm
ff = windsnelheid
fx = windstoten
dd = windrichting
ppp = luchtdruk
vv = zicht
rr = neerslag

Weerstations in de omgeving